This demonstration page uses our WeatherBlox Daily Observations layout. Learn more.

Left ArrowRight Arrow

38.83388, -104.82136

Hourly Observations for April 29, 2017

Temp ( °F °C ) Dew Point ( °F °C ) Humidity (%) Winds ( mph kmh ) Pressure ( in mb ) Visibility ( mi km ) Precip ( " mm )
12:58 am 00:58 Cloudy with Heavy Snow 26 -3.5 24 -4.7 92 92 NNW 24 39 29.65 1004 3 5 0.00 0.00
1:23 am 01:23 Cloudy with Snow 25 -4 23 -5 93 93 NNW 24 39 29.65 1004 1 1 0.00 0.00
1:43 am 01:43 Cloudy with Snow 25 -4 23 -5 93 93 NNW 22 35 29.67 1005 5 8 0.00 0.00
1:58 am 01:58 Cloudy with Snow 25 -3.7 23 -5.1 90 90 NNW 18 30 29.65 1004 5 8 0.00 0.00
2:43 am 02:43 Windy with Snow Likely 25 -4 23 -5 93 93 N 21 33 29.68 1005 1 2 0.00 0.00
2:58 am 02:58 Cloudy with Snow 25 -4 23 -4.8 94 94 N 23 37 29.67 1005 1 1 0.00 0.00
3:08 am 03:08 Cloudy with Snow 25 -4 23 -5 93 93 NNW 23 37 29.67 1005 5 8 0.00 0.00
3:33 am 03:33 Cloudy with Snow 25 -4 23 -5 93 93 NNW 26 43 29.67 1005 5 8 0.00 0.00
3:38 am 03:38 Cloudy with Snow 25 -4 23 -5 93 93 NNW 21 33 30.09 1019 7 11 0.00 0.00
3:53 am 03:53 Windy with Snow Likely 25 -4 23 -5 93 93 N 23 37 30.09 1019 1 2 0.00 0.00
3:58 am 03:58 Windy with Snow Likely 24 -4.5 22 -5.3 94 94 N 22 35 30.06 1018 1 2 0.00 0.00
4:28 am 04:28 Windy with Snow Likely 25 -4 21 -6 86 86 NNW 20 31 30.03 1017 3 5 0.00 0.00
4:58 am 04:58 Cloudy with Light Snow 25 -3.7 21 -6.1 84 84 NNW 16 26 30.06 1018 2 2 0.00 0.00
5:38 am 05:38 Windy with Snow Likely 25 -4 21 -6 86 86 N 23 37 30.09 1019 2 3 0.00 0.00
5:53 am 05:53 Cloudy with Light Snow 25 -4 21 -6 86 86 NNW 18 30 30.12 1020 2 4 0.00 0.00
5:58 am 05:58 Cloudy with Light Snow 24 -4.3 22 -5.8 89 89 N 17 28 30.12 1020 2 3 0.00 0.00
6:28 am 06:28 Windy with Snow Likely 25 -4 21 -6 86 86 NNW 20 31 30.12 1020 1 1 0.00 0.00
6:58 am 06:58 Cloudy with Snow 24 -4.2 21 -5.9 88 88 NNW 26 43 30.09 1019 1 1 0.00 0.00
7:58 am 07:58 Windy with Snow Likely 25 -4.1 21 -6.3 85 85 NNW 20 31 30.12 1020 3 5 0.00 0.00
8:08 am 08:08 Windy with Snow Likely 25 -4 21 -6 86 86 NNW 20 31 30.12 1020 2 2 0.00 0.00
8:18 am 08:18 Windy with Snow Likely 25 -4 21 -6 86 86 NNW 26 43 30.12 1020 5 8 0.00 0.00
8:58 am 08:58 Windy with Snow Likely 26 -3.5 20 -6.5 80 80 NNW 22 35 30.15 1021 6 10 0.00 0.00
9:28 am 09:28 Windy with Snow Likely 25 -4 23 -5 93 93 N 22 35 30.15 1021 1 1 0.00 0.00
9:38 am 09:38 Cloudy with Snow 25 -4 23 -5 93 93 NNW 17 28 30.15 1021 1 1 0.00 0.00
9:58 am 09:58 Cloudy with Snow 25 -4.1 22 -5.3 91 91 NNW 20 31 30.15 1021 3 5 0.00 0.00
10:03 am 10:03 Cloudy with Snow 25 -4 23 -5 93 93 N 20 31 30.15 1021 3 5 0.00 0.00
10:33 am 10:33 Windy with Snow Likely 25 -4 23 -5 93 93 N 20 31 30.15 1021 1 2 0.00 0.00
10:48 am 10:48 Windy with Snow Likely 25 -4 23 -5 93 93 N 21 33 30.15 1021 1 1 0.00 0.00
10:53 am 10:53 Windy with Snow Likely 25 -4 23 -5 93 93 N 25 41 30.15 1021 5 8 0.00 0.00
10:58 am 10:58 Windy with Snow Likely 25 -4 23 -4.9 94 94 N 24 39 30.15 1021 5 8 0.00 0.00
11:38 am 11:38 Mostly Cloudy with Light Snow 25 -4 23 -5 93 93 N 25 41 29.86 1011 1 1 0.00 0.00
11:48 am 11:48 Windy with Snow Likely 25 -4 21 -6 86 86 N 21 33 29.86 1011 7 11 0.00 0.00
11:58 am 11:58 Windy with Snow Likely 25 -3.7 22 -5.8 86 86 N 22 35 29.85 1011 1 2 0.00 0.00
12:08 pm 12:08 Cloudy with Snow 25 -4 23 -5 93 93 N 24 39 29.85 1011 1 1 0.00 0.00
12:28 pm 12:28 Mostly Cloudy with Snow 25 -4 23 -5 93 93 N 22 35 29.84 1011 1 1 0.00 0.00
12:53 pm 12:53 Mostly Cloudy with Light Snow 25 -4 23 -5 93 93 N 25 41 29.83 1010 7 11 0.00 0.00
12:58 pm 12:58 Windy with Snow Likely 26 -3.6 23 -4.8 92 92 N 24 39 29.84 1011 7 11 0.01 0.25
1:03 pm 13:03 Windy with Snow Likely 27 -3 23 -5 86 86 N 21 33 29.82 1010 1 1 0.00 0.00
1:13 pm 13:13 Mostly Cloudy with Light Snow 25 -4 23 -5 93 93 N 25 41 29.83 1010 7 11 0.00 0.00
1:58 pm 13:58 Mostly Cloudy with Light Snow 26 -3.6 23 -5.2 89 89 NNW 25 41 29.82 1010 1 2 0.00 0.00
2:03 pm 14:03 Mostly Cloudy with Light Snow 27 -3 23 -5 86 86 N 22 35 29.79 1009 1 2 0.00 0.00
2:58 pm 14:58 Mostly Cloudy with Light Snow 27 -2.8 23 -5.2 84 84 N 26 43 29.80 1009 7 11 0.00 0.00
3:50 pm 15:50 Mostly Cloudy 27 -3 23 -5 86 86 N 25 41 29.81 1009 10 16 0.00 0.00
3:58 pm 15:58 Mostly Cloudy 28 -2.5 23 -5 83 83 N 24 39 29.79 1009 10 16 0.00 0.00
4:24 pm 16:24 Windy with Snow Showers Likely 27 -3 23 -5 86 86 NNW 23 37 29.80 1009 10 16 0.00 0.00
4:39 pm 16:39 Windy with Snow Showers Likely 27 -3 23 -5 86 86 NNW 24 39 29.79 1009 10 16 0.00 0.00
4:43 pm 16:43 Mostly Cloudy 27 -3 21 -6 80 80 N 24 39 29.79 1009 10 16 0.00 0.00
4:58 pm 16:58 Mostly Cloudy 27 -2.7 22 -5.3 83 83 NNW 20 31 29.81 1010 10 16 0.00 0.00
5:47 pm 17:47 Mostly Cloudy with Light Snow Showers 27 -3 21 -6 80 80 NNW 18 30 29.84 1011 10 16 0.00 0.00
5:58 pm 17:58 Windy with Snow Likely 27 -2.7 21 -6 78 78 NNW 20 31 29.84 1011 10 16 0.00 0.00
6:03 pm 18:03 Mostly Cloudy with Light Snow 27 -3 21 -6 80 80 N 21 33 29.84 1011 10 16 0.00 0.00
6:48 pm 18:48 Windy with Snow Likely 27 -3 19 -7 74 74 NNW 25 41 29.82 1010 6 10 0.00 0.00
6:58 pm 18:58 Windy with Snow Likely 27 -2.7 18 -7.8 68 68 NNW 29 46 29.82 1010 8 13 0.00 0.00
7:18 pm 19:18 Cloudy 28 -2 18 -8 64 64 NNW 21 33 29.82 1010 10 16 0.00 0.00
7:58 pm 19:58 Cloudy 27 -2.6 18 -7.9 67 67 NNW 20 31 29.83 1010 10 16 0.00 0.00
8:58 pm 20:58 Cloudy 28 -2.4 16 -8.9 61 61 NNW 23 37 29.81 1010 10 16 0.00 0.00
9:58 pm 21:58 Cloudy 28 -2.1 16 -8.9 60 60 NNW 21 33 29.81 1010 10 16 0.00 0.00
10:58 pm 22:58 Mostly Cloudy 28 -2.2 17 -8.5 62 62 NNW 16 26 29.80 1009 10 16 0.00 0.00
11:58 pm 23:58 Cloudy 28 -2.1 17 -8.4 62 62 NNW 17 28 29.80 1009 10 16 0.00 0.00

Powered by AerisWeather